Regional Weather Roundup
Issued by NWS

Home | Current Version | Previous Version | Graphics & Text | Print | Product List | Glossary On
Versions: 1 2 3 4 5 6 7 8 9 10 11 12 13 14 15 16 17 18 19 20 21 22 23 24 25 26 27 28 29 30 31 32 33 34 35 36 37 38 39 40 41 42 43 44 45 46 47 48 49 50
000
ASUS43 KIND 131959
RWRIN

WEATHER ROUNDUP FOR INDIANA
NATIONAL WEATHER SERVICE INDIANAPOLIS IN
300 PM EST WED DEC 13 2017

NOTE: "FAIR" INDICATES FEW OR NO CLOUDS BELOW 12,000 FEET WITH NO
SIGNIFICANT WEATHER AND/OR OBSTRUCTIONS TO VISIBILITY.

* - STATION DOES NOT REPORT WEATHER SUCH AS PRECIPITATION OR FOG.

+ - STATION NOT QUALITY CONTROLLED BY THE NATIONAL WEATHER SERVICE.
    USE DATA WITH CAUTION...ESPECIALLY DEWPOINT AND RELATIVE
    HUMIDITY OBSERVATIONS.

INZ001>003-010>013-019-020-132100-
NORTHWEST INDIANA

CITY           SKY/WX    TMP DP  RH WIND       PRES   REMARKS
GARY /AIRPORT/ LGT SNOW  37  27  65 SW17G33   29.30F VSB 1   WCI  28
KNOX *+        CLOUDY    36  23  60 SW24G31   29.32F WCI  24
LA PORTE +     LGT SNOW  35  27  71 SW23G30   29.30F WCI  23
MICHIGAN CITY+ LGT SNOW  34  27  75 SW18G28   29.29F WCI  23
MONTICELLO +   FLURRIES  39  21  48 SW26G35   29.35F WCI  28
RENSSELAER +   FLURRIES  36  28  75 SW22G31   29.34S WCI  24
VALPARAISO     LGT SNOW  37  28  70 SW22G31   29.30F WCI  27

$$

LMZ046-743>745-132100-
SOUTHERN LAKE MICHIGAN

STATION/POSITION TIME  TEMP    WIND        PRES    WAVE
                       AIR SEA DIR/SP/G            HT
                 (UTC) (F)     (DEG/KT/KT) (MB)    (FT)
BURNS HARBOR     1940   37     230/ 15/ 25  992.6F
MICHIGAN CITY    1930   35     170/ 12/ 15   N/A

$$

INZ004-005-014>016-021>024-132100-
NORTH CENTRAL INDIANA

CITY           SKY/WX    TMP DP  RH WIND       PRES   REMARKS
GOSHEN         CLOUDY    30  15  53 S16       29.34F WCI  19
PERU/GRISSOM   CLOUDY    38  20  47 SW18G30   29.36F WCI  28
ROCHESTER +    CLOUDY    37  23  56 S13G18    29.35F WCI  29
SOUTH BEND     CLOUDY    29  18  63 SE10      29.31F WCI  20
WARSAW +       CLOUDY    30  16  55 S9G17     29.36F WCI  22

$$

INZ006>009-017-018-025>027-132100-
NORTHEAST INDIANA

CITY           SKY/WX    TMP DP  RH WIND       PRES   REMARKS
FORT WAYNE     CLOUDY    32  18  56 S15       29.40F WCI  22
KENDALLVILLE + CLOUDY    28  15  59 S10G21    29.39F WCI  18

$$

INZ028-029-035-036-043>045-051>053-132100-
WEST CENTRAL INDIANA

CITY           SKY/WX    TMP DP  RH WIND       PRES   REMARKS
CRAWFORDSVL +  CLOUDY    37  22  53 MISG      29.41
GREENCASTLE +  CLOUDY    37  19  48 SW9G20    29.45F WCI  31
LAFAYETTE      LGT SNOW  36  28  73 SW28G38   29.40F WCI  23
TERRE HAUTE    CLOUDY    43  20  39 SW14G25   29.47F

$$

INZ030>032-037>040-046>048-054>057-064-065-132100-
CENTRAL INDIANA

CITY           SKY/WX    TMP DP  RH WIND       PRES   REMARKS
ANDERSON       SUNNY     36  12  38 S17G23    29.45R WCI  25
COLUMBUS       CLOUDY    39   7  26 SW23G30   29.50R WCI  29
FRANKFORT +    CLOUDY    41  21  46 SW21G30   29.41F
INDIANAPOLIS   CLOUDY    40  19  43 SW22G39   29.45F WCI  30
-EAGLE CREEK   MOSUNNY   40  18  41 SW14G24   29.42F WCI  32
KOKOMO +       PTSUNNY   37  20  50 SW18G28   29.39F WCI  27
MT COMFORT *+  CLOUDY    37  21  52 SW14      29.44S WCI  29
SHELBYVILLE    MOSUNNY   39  13  34 SW21G30   29.47R WCI  29
ZIONSVILLE +   PTSUNNY   38  19  47 SW21G33   29.42F WCI  27

$$

INZ033-034-041-042-049-050-058-059-132100-
EAST CENTRAL INDIANA

CITY           SKY/WX    TMP DP  RH WIND       PRES   REMARKS
MUNCIE         CLOUDY    35  11  36 S14G31    29.43R WCI  26
RICHMOND +     CLOUDY    30  14  51 S21       29.47F WCI  17

$$

INZ060-061-067>069-081>083-085>088-132100-
SOUTHWEST INDIANA

CITY           SKY/WX    TMP DP  RH WIND       PRES   REMARKS
EVANSVILLE     SUNNY     48  23  37 SW23G36   29.61R
HUNTINGBURG +  MOSUNNY   45  22  40 SW18G35   29.60R

$$

INZ062-063-066-070>080-084-089>092-132100-
SOUTH CENTRAL AND SOUTHEAST INDIANA

CITY           SKY/WX    TMP DP  RH WIND       PRES   REMARKS
BLOOMINGTON    MOSUNNY   42  19  39 SW21G32   29.49S
SEYMOUR +      MOSUNNY   43  18  36 SW21      29.51S

$$




USA.gov is the U.S. government's official web portal to all federal, state and local government web resources and services.